TimeCDT,TemperatureF,Dew PointF,Humidity,Sea Level PressureIn,VisibilityMPH,Wind Direction,Wind SpeedMPH,Gust SpeedMPH,PrecipitationIn,Events,Conditions,WindDirDegrees,DateUTC
12:04 AM,68.0,60.8,78,29.78,10.0,NNW,18.4,-,N/A,Thunderstorm,Light Drizzle,340,2013-08-21 05:04:00
12:05 AM,68.0,60.8,78,29.79,10.0,NNW,18.4,-,N/A,Thunderstorm,Scattered Clouds,340,2013-08-21 05:05:00
12:58 AM,67.3,56.8,69,29.82,10.0,North,11.5,-,,,Partly Cloudy,350,2013-08-21 05:58:00
1:58 AM,65.5,57.0,74,29.83,10.0,NNW,12.7,-,,,Clear,340,2013-08-21 06:58:00
2:58 AM,63.0,56.5,79,29.84,10.0,NNW,13.8,-,,,Clear,340,2013-08-21 07:58:00
3:58 AM,60.1,55.9,86,29.87,10.0,WNW,8.1,-,,,Clear,300,2013-08-21 08:58:00
4:58 AM,60.4,55.9,85,29.88,10.0,NW,5.8,-,,,Clear,320,2013-08-21 09:58:00
5:58 AM,58.3,55.2,90,29.88,10.0,North,2.3,-,,,Clear,350,2013-08-21 10:58:00
6:58 AM,54.1,52.7,95,29.92,10.0,NW,4.6,-,,,Clear,320,2013-08-21 11:58:00
7:58 AM,61.5,57.0,85,29.96,10.0,NNW,2.3,-,,,Clear,330,2013-08-21 12:58:00
8:58 AM,66.9,56.8,70,29.99,10.0,North,6.9,-,,,Clear,10,2013-08-21 13:58:00
9:58 AM,69.6,54.0,57,30.01,10.0,North,15.0,-,,,Clear,10,2013-08-21 14:58:00
10:58 AM,73.6,52.2,47,30.03,10.0,NNE,12.7,-,,,Clear,20,2013-08-21 15:58:00
11:58 AM,77.2,45.9,33,30.04,10.0,NNE,13.8,-,,,Clear,30,2013-08-21 16:58:00
12:58 PM,79.3,43.3,28,30.04,10.0,NNE,10.4,-,,,Clear,30,2013-08-21 17:58:00
1:58 PM,81.1,44.4,27,30.04,10.0,NNW,9.2,-,,,Clear,340,2013-08-21 18:58:00
2:58 PM,81.7,45.1,28,30.04,10.0,North,10.4,-,N/A,,Clear,360,2013-08-21 19:58:00
3:58 PM,81.5,47.7,31,30.04,10.0,Variable,6.9,-,N/A,,Clear,0,2013-08-21 20:58:00
4:58 PM,79.9,50.2,35,30.04,10.0,North,9.2,-,N/A,,Partly Cloudy,10,2013-08-21 21:58:00
5:58 PM,78.3,48.7,35,30.05,10.0,North,10.4,-,N/A,,Partly Cloudy,360,2013-08-21 22:58:00
6:58 PM,76.5,49.8,39,30.06,10.0,North,9.2,-,N/A,,Scattered Clouds,350,2013-08-21 23:58:00
7:58 PM,73.8,48.2,40,30.07,10.0,NW,6.9,-,N/A,,Mostly Cloudy,320,2013-08-22 00:58:00
8:58 PM,70.0,48.7,47,30.09,10.0,North,8.1,-,N/A,,Mostly Cloudy,350,2013-08-22 01:58:00
9:58 PM,67.5,47.5,49,30.11,10.0,NNW,6.9,-,N/A,,Overcast,330,2013-08-22 02:58:00
10:58 PM,66.0,47.7,52,30.12,10.0,NNW,5.8,-,N/A,,Overcast,330,2013-08-22 03:58:00
11:58 PM,66.9,47.8,50,30.13,10.0,North,5.8,-,N/A,,Overcast,360,2013-08-22 04:58:00